[[{"header":{"parameterUnit":"m.s-1","parameterCategory":1,"la1":30.2991,"la2":30.254,"lo1":-89.0895,"lo2":-89.0444,"dx":0.0017,"dy":0.0017,"nx":28,"ny":28,"refTime":"2023-01-09T03:00:00:Z","depth":0,"parameterNumber":2,"parameterNumberName":"U-component_of_WINDS"},"data":[0,0,0,0,0,0,0,0,0,0,0,0,0,0,0,0,0,0,0,0,0,0,0,0,0,0,0,0,0,0,0,0,0,0,0,0,0,0,0,0,0,0,0,0,0,0,0,0,0,0,0,0,0,0,0,0,0,0,-0.9528,-0.9527,0,-0.9523,-0.9523,-0.9523,-0.9494,-0.9493,-0.9492,-0.9491,-0.9487,-0.9488,-0.9488,0,0,0,0,0,0,0,0,0,0,0,0,0,-0.9512,-0.9513,-0.9528,-0.9527,-0.9527,-0.9523,-0.9523,-0.9523,-0.9494,-0.9493,-0.9492,-0.9491,-0.9487,-0.9488,-0.9488,0,0,0,0,0,0,0,0,0,0,0,0,0,-0.9514,-0.9513,-0.9528,-0.9512,-0.9511,-0.9523,-0.9523,-0.9522,-0.9494,-0.9493,-0.9492,-0.9491,-0.9487,-0.9488,-0.9488,-0.9515,0,0,-0.9491,-0.9491,0,0,0,0,0,0,0,0,-0.9514,-0.9515,-0.9515,-0.9513,-0.9512,-0.9508,-0.9516,-0.952,-0.9494,-0.95,-0.9491,-0.949,-0.9495,-0.9495,-0.9496,-0.9514,-0.9514,-0.9491,-0.9491,-0.9492,-0.9492,0,0,0,0,0,0,0,-0.9514,-0.9515,-0.9526,-0.9515,-0.9513,-0.9506,-0.9505,-0.9516,-0.9504,-0.95,-0.9498,-0.9497,-0.9494,-0.9496,-0.9496,-0.9514,-0.9491,-0.9492,-0.9492,-0.9493,-0.9553,-0.9554,0,0,0,0,0,0,-0.9516,-0.9515,-0.9526,-0.9525,-0.951,-0.9507,-0.9506,-0.951,-0.9503,-0.9501,-0.9498,-0.9496,-0.9495,-0.9495,-0.9496,-0.9526,-0.9492,-0.9493,-0.9493,-0.9552,-0.9554,-0.9555,0,0,0,0,0,0,-0.9516,-0.9517,-0.9526,-0.952,-0.952,-0.9508,-0.9513,-0.9511,-0.9512,-0.9502,-0.95,-0.9502,-0.9494,-0.9495,-0.951,-0.9526,-0.9493,-0.9494,-0.9551,-0.9553,-0.9554,-0.9588,0,0,0,0,0,0,-0.9515,-0.9517,-0.9527,-0.952,-0.9521,-0.954,-0.9514,-0.9511,-0.9514,-0.9511,-0.9506,-0.9504,-0.9493,-0.9509,-0.9511,-0.9526,-0.9494,-0.9549,-0.9552,-0.9554,-0.9585,-0.959,-0.9595,0,0,0,0,0,-0.9515,-0.9537,-0.9528,-0.9529,-0.9533,-0.9541,-0.9542,-0.9529,-0.9515,-0.9525,-0.9518,-0.9504,-0.9523,-0.9511,-0.9513,-0.9529,-0.9548,-0.9551,-0.9553,-0.9583,-0.9589,-0.9594,0,0,0,0,0,0,-0.9547,-0.9536,-0.9526,-0.9546,-0.9545,-0.9536,-0.9548,-0.9536,-0.9539,-0.9536,-0.952,-0.9519,-0.9537,-0.9534,-0.952,-0.9554,-0.9533,-0.9537,-0.9555,-0.9561,-0.9566,-0.9567,-0.9495,0,0,0,0,0,-0.9556,-0.9563,-0.9554,-0.9572,-0.9572,-0.956,-0.9564,-0.9554,-0.9552,-0.9552,-0.9546,-0.9546,-0.9552,-0.9556,-0.9561,-0.9584,-0.9583,-0.9596,-0.9601,-0.9604,-0.9608,-0.962,-0.9626,-0.9563,-0.9563,-0.9563,0,0,-0.9575,-0.957,-0.9576,-0.9579,-0.9577,-0.9585,-0.956,-0.957,-0.9577,-0.9553,-0.9568,-0.9564,-0.9562,-0.9581,-0.959,-0.9579,-0.9625,-0.9608,-0.9611,-0.9612,-0.9623,-0.9629,-0.9635,-0.9565,-0.9564,-0.9564,0,0,-0.9615,-0.9612,-0.9627,-0.9625,-0.9622,-0.9614,-0.9618,-0.9612,-0.9608,-0.9622,-0.9605,-0.9612,-0.9622,-0.9622,-0.9623,-0.9662,-0.9649,-0.9663,-0.9689,-0.9701,-0.9706,-0.9711,-0.9725,-0.9731,-0.9666,-0.9666,-0.9667,0,-0.964,-0.9652,-0.9637,-0.9648,-0.965,-0.9628,-0.9644,-0.9643,-0.9642,-0.9644,-0.9632,-0.9645,-0.9642,-0.9661,-0.9671,-0.9672,-0.9676,-0.9665,-0.9707,-0.9711,-0.9715,-0.9729,-0.9734,-0.9668,-0.9668,-0.9668,-0.9668,0,-0.9682,-0.9691,-0.9704,-0.9703,-0.9706,-0.972,-0.9707,-0.9712,-0.9701,-0.9694,-0.9709,-0.9704,-0.9708,-0.9712,-0.9702,-0.973,-0.9723,-0.9709,-0.9689,-0.9723,-0.9736,-0.9741,-0.9671,-0.967,-0.967,-0.9669,0,0,-0.9743,-0.9733,-0.9739,-0.9738,-0.9733,-0.9739,-0.9752,-0.9755,-0.976,-0.9759,-0.977,-0.9779,-0.9766,-0.9767,-0.9756,-0.9767,-0.9799,-0.9752,-0.9751,-0.9762,-0.983,-0.9842,-0.9848,-0.979,-0.9791,-0.9791,-0.9831,0,-0.9782,-0.9803,-0.9789,-0.9812,-0.982,-0.9799,-0.981,-0.9808,-0.9802,-0.9808,-0.9801,-0.9808,-0.979,-0.979,-0.98,-0.9793,-0.9813,-0.979,-0.98,-0.9801,-0.9802,-0.9854,-0.9867,-0.9904,-0.9835,-0.9836,-0.9837,0,-0.9831,-0.9833,-0.9856,-0.9849,-0.9852,-0.9862,-0.9864,-0.987,-0.9867,-0.9862,-0.9863,-0.9849,-0.9861,-0.984,-0.9857,-0.9842,-0.9845,-0.9842,-0.9843,-0.9844,-0.9822,-0.9858,-0.9915,-0.9922,-0.9844,-0.9844,-0.9843,0,-0.9874,-0.9882,-0.9897,-0.9897,-0.9889,-0.9897,-0.9894,-0.989,-0.9893,-0.9894,-0.9896,-0.9899,-0.9901,-0.9904,-0.9892,-0.9878,-0.991,-0.9888,-0.9907,-0.9907,-0.9916,-0.9915,-0.9975,-0.9916,-0.9916,-0.9915,-0.9915,0,-0.992,-0.9936,-0.9917,-0.9926,-0.9943,-0.9927,-0.9944,-0.9939,-0.9935,-0.9944,-0.9926,-0.9934,-0.9917,-0.9924,-0.9914,-0.993,-0.993,-0.9927,-0.9924,-0.9929,-0.993,-0.9932,-0.993,-0.9917,-0.9917,-0.9916,-0.9916,0,-0.9972,-0.996,-0.9975,-0.9966,-0.9964,-0.9977,-0.9969,-0.9978,-0.997,-0.998,-0.9982,-0.997,-0.9976,-0.9964,-0.997,-0.9963,-0.9985,-0.9978,-0.9986,-0.9985,-1.0004,-1.0003,-1.0068,-1.0077,-1.0011,-1.0011,-1.0012,0,-1.0003,-1.0014,-1.0006,-1.001,-1.0008,-1.0015,-1.0017,-1.0002,-1.0005,-1.0003,-1.0012,-1.0017,-1.002,-1.0032,-1.0024,-1.0028,-1.0021,-1.0044,-1.0022,-1.0026,-1.0023,-1.0023,-1.0024,-1.0049,-1.005,-1.005,-1.0051,0,-1.0059,-1.0052,-1.0056,-1.0058,-1.0062,-1.0063,-1.0063,-1.0067,-1.005,-1.0055,-1.0062,-1.0064,-1.0069,-1.0075,-1.0077,-1.0074,-1.006,-1.0057,-1.0062,-1.0068,-1.0073,-1.0071,-1.0,-1.0056,-1.0056,-1.0055,-1.0055,-1.0055,-1.0102,-1.0111,-1.0106,-1.0112,-1.011,-1.011,-1.0117,-1.011,-1.0115,-1.0118,-1.0108,-1.0117,-1.0114,-1.0115,-1.0113,-1.012,-1.011,-1.0117,-1.0119,-1.0121,-1.0124,-1.007,-1.012,-1.012,-1.012,-1.012,-1.0119,0,-1.0158,-1.0153,-1.0158,-1.0158,-1.0163,-1.0148,-1.0147,-1.0152,-1.0159,-1.0157,-1.0161,-1.0168,-1.0173,-1.0165,-1.0169,-1.0176,-1.017,-1.0178,-1.0178,-1.0177,-1.0133,-1.0129,-1.0183,-1.0183,-1.0183,-1.0183,-1.0183,-1.0183,-1.0187,-1.0202,-1.0195,-1.0209,-1.0204,-1.0213,-1.0213,-1.0213,-1.0212,-1.0221,-1.0225,-1.0219,-1.0214,-1.0218,-1.0222,-1.0219,-1.0222,-1.0232,-1.0228,-1.0187,-1.018,-1.0175,-1.0171,-1.0233,-1.0233,-1.0272,-1.0272,-1.0273]},{"header":{"parameterUnit":"m.s-1","parameterCategory":1,"la1":30.2991,"la2":30.254,"lo1":-89.0895,"lo2":-89.0444,"dx":0.0017,"dy":0.0017,"nx":28,"ny":28,"refTime":"2023-01-09T03:00:00:Z","depth":0,"parameterNumber":3,"parameterNumberName":"V-component_of_WINDS"},"data":[0,0,0,0,0,0,0,0,0,0,0,0,0,0,0,0,0,0,0,0,0,0,0,0,0,0,0,0,0,0,0,0,0,0,0,0,0,0,0,0,0,0,0,0,0,0,0,0,0,0,0,0,0,0,0,0,0,0,-2.7484,-2.7484,0,-2.7506,-2.7506,-2.7506,-2.7477,-2.7476,-2.7475,-2.7474,-2.7494,-2.7495,-2.7497,0,0,0,0,0,0,0,0,0,0,0,0,0,-2.7413,-2.7414,-2.7484,-2.7484,-2.7484,-2.7506,-2.7506,-2.7506,-2.7477,-2.7476,-2.7475,-2.7473,-2.7493,-2.7495,-2.7497,0,0,0,0,0,0,0,0,0,0,0,0,0,-2.744,-2.7415,-2.7484,-2.7472,-2.7472,-2.7506,-2.7506,-2.7506,-2.7477,-2.7476,-2.7474,-2.7473,-2.7493,-2.7495,-2.7497,-2.7542,0,0,-2.7504,-2.7505,0,0,0,0,0,0,0,0,-2.7439,-2.7443,-2.7474,-2.7473,-2.7472,-2.7487,-2.7488,-2.7518,-2.7478,-2.7475,-2.7474,-2.7472,-2.7493,-2.7495,-2.7502,-2.7543,-2.7544,-2.7504,-2.7505,-2.7506,-2.7507,0,0,0,0,0,0,0,-2.7437,-2.7442,-2.7492,-2.7474,-2.7473,-2.7465,-2.7467,-2.7494,-2.7492,-2.7475,-2.7473,-2.7476,-2.7492,-2.75,-2.7502,-2.7544,-2.7504,-2.7506,-2.7507,-2.7508,-2.7624,-2.7626,0,0,0,0,0,0,-2.7437,-2.744,-2.7492,-2.7493,-2.7451,-2.7468,-2.747,-2.7484,-2.7492,-2.7492,-2.7478,-2.7475,-2.7497,-2.75,-2.7503,-2.7558,-2.7506,-2.7508,-2.751,-2.7622,-2.7624,-2.7626,0,0,0,0,0,0,-2.7435,-2.7441,-2.7491,-2.7466,-2.7472,-2.7471,-2.7486,-2.7485,-2.7493,-2.7494,-2.7493,-2.7487,-2.7496,-2.75,-2.7533,-2.7558,-2.7509,-2.7511,-2.762,-2.7623,-2.7625,-2.7666,0,0,0,0,0,0,-2.7433,-2.7441,-2.7459,-2.7467,-2.7473,-2.7521,-2.7488,-2.7487,-2.7498,-2.7494,-2.7502,-2.7502,-2.7495,-2.753,-2.7535,-2.756,-2.7513,-2.7618,-2.7622,-2.7625,-2.7663,-2.767,-2.7676,0,0,0,0,0,-2.7431,-2.7469,-2.746,-2.7467,-2.7496,-2.7523,-2.7526,-2.7519,-2.75,-2.7518,-2.7518,-2.7502,-2.7554,-2.7534,-2.7539,-2.7565,-2.7617,-2.7621,-2.7624,-2.766,-2.7669,-2.7676,0,0,0,0,0,0,-2.7463,-2.747,-2.746,-2.7502,-2.7512,-2.7518,-2.754,-2.7528,-2.7543,-2.7539,-2.7528,-2.753,-2.7566,-2.7568,-2.7546,-2.761,-2.7582,-2.7587,-2.7607,-2.7615,-2.7622,-2.7621,-2.7515,0,0,0,0,0,-2.7475,-2.7498,-2.7502,-2.7538,-2.7544,-2.7541,-2.7553,-2.7546,-2.7556,-2.756,-2.7562,-2.7572,-2.759,-2.7603,-2.7619,-2.7663,-2.7664,-2.7683,-2.769,-2.7695,-2.77,-2.7724,-2.7733,-2.7639,-2.7639,-2.7639,0,0,-2.75,-2.7506,-2.7521,-2.7545,-2.7552,-2.7575,-2.7545,-2.757,-2.7587,-2.7563,-2.7596,-2.7598,-2.7607,-2.7646,-2.7663,-2.7649,-2.7726,-2.77,-2.7705,-2.7707,-2.7729,-2.7738,-2.7746,-2.7642,-2.7641,-2.7641,0,0,-2.7558,-2.7565,-2.7596,-2.7605,-2.7616,-2.7614,-2.7622,-2.7629,-2.7631,-2.7663,-2.7646,-2.7664,-2.7696,-2.7704,-2.7713,-2.7773,-2.7759,-2.7779,-2.7814,-2.7838,-2.7845,-2.7852,-2.7874,-2.7883,-2.7784,-2.7784,-2.7784,0,-2.7587,-2.7622,-2.7614,-2.7641,-2.7652,-2.7632,-2.7664,-2.7672,-2.7688,-2.7696,-2.768,-2.772,-2.7725,-2.7766,-2.7781,-2.7788,-2.7796,-2.7779,-2.7845,-2.7851,-2.7857,-2.7879,-2.7887,-2.7786,-2.7786,-2.7786,-2.7785,0,-2.7658,-2.7683,-2.7707,-2.7725,-2.7738,-2.7767,-2.7763,-2.7777,-2.7769,-2.7768,-2.7801,-2.7806,-2.7825,-2.7833,-2.7825,-2.7873,-2.7864,-2.7847,-2.7819,-2.7869,-2.7889,-2.7897,-2.779,-2.7789,-2.7788,-2.7787,0,0,-2.7738,-2.7751,-2.776,-2.7768,-2.778,-2.7798,-2.7826,-2.7845,-2.7858,-2.7869,-2.7893,-2.792,-2.7905,-2.7914,-2.7906,-2.7926,-2.7976,-2.7906,-2.7907,-2.792,-2.803,-2.8044,-2.8054,-2.7966,-2.7967,-2.7968,-2.8029,0,-2.7796,-2.7847,-2.784,-2.7888,-2.7911,-2.7892,-2.7916,-2.7926,-2.7926,-2.7944,-2.7943,-2.7964,-2.7941,-2.7946,-2.7966,-2.7966,-2.7998,-2.7961,-2.7987,-2.7988,-2.7987,-2.8064,-2.8079,-2.8137,-2.8037,-2.8038,-2.8039,0,-2.7872,-2.7888,-2.7939,-2.7948,-2.7957,-2.7979,-2.7997,-2.8014,-2.8024,-2.8023,-2.8033,-2.8022,-2.8049,-2.802,-2.8058,-2.8033,-2.8043,-2.8045,-2.8047,-2.805,-2.8018,-2.8071,-2.8154,-2.8164,-2.8051,-2.805,-2.805,0,-2.7927,-2.7961,-2.7996,-2.8003,-2.8014,-2.803,-2.8035,-2.8043,-2.8055,-2.807,-2.8077,-2.8094,-2.8104,-2.8116,-2.811,-2.8089,-2.8149,-2.8119,-2.8149,-2.8149,-2.8163,-2.8163,-2.8251,-2.8167,-2.8167,-2.8167,-2.8167,0,-2.7994,-2.8026,-2.8021,-2.8043,-2.8078,-2.8069,-2.8104,-2.8106,-2.8114,-2.8135,-2.8119,-2.8139,-2.8128,-2.8147,-2.8141,-2.8174,-2.8178,-2.8177,-2.8176,-2.818,-2.818,-2.8187,-2.8184,-2.8169,-2.8169,-2.8168,-2.8168,0,-2.8062,-2.8059,-2.8097,-2.8104,-2.8107,-2.8132,-2.8138,-2.8158,-2.8157,-2.8184,-2.819,-2.8187,-2.8209,-2.8203,-2.8226,-2.8222,-2.8264,-2.8256,-2.8261,-2.826,-2.829,-2.8288,-2.8388,-2.8401,-2.8307,-2.8308,-2.8309,0,-2.8106,-2.8131,-2.8141,-2.8155,-2.8162,-2.8183,-2.8196,-2.8188,-2.8201,-2.8215,-2.8233,-2.8253,-2.827,-2.8305,-2.8304,-2.8322,-2.8316,-2.8349,-2.8318,-2.8322,-2.8318,-2.8317,-2.832,-2.8356,-2.8357,-2.8358,-2.8359,0,-2.8185,-2.8183,-2.8202,-2.8222,-2.8237,-2.8252,-2.8264,-2.8276,-2.8269,-2.8285,-2.8307,-2.832,-2.8344,-2.8365,-2.8381,-2.8384,-2.8371,-2.8368,-2.8376,-2.8382,-2.8384,-2.8385,-2.828,-2.8366,-2.8366,-2.8365,-2.8365,-2.8364,-2.8243,-2.8264,-2.8276,-2.8298,-2.8307,-2.8319,-2.8339,-2.834,-2.8359,-2.8379,-2.8373,-2.8399,-2.8407,-2.8428,-2.8434,-2.8454,-2.8441,-2.8452,-2.8455,-2.8459,-2.8463,-2.838,-2.8456,-2.8456,-2.8456,-2.8456,-2.8455,0,-2.8322,-2.8329,-2.8349,-2.8368,-2.8386,-2.8372,-2.8385,-2.84,-2.8424,-2.8434,-2.8451,-2.8477,-2.8497,-2.8498,-2.8516,-2.8532,-2.8526,-2.8537,-2.8537,-2.8538,-2.8473,-2.8465,-2.8542,-2.8542,-2.8542,-2.8542,-2.8542,-2.8542,-2.8366,-2.8402,-2.8401,-2.8441,-2.8446,-2.8473,-2.8482,-2.8493,-2.8501,-2.8532,-2.8549,-2.8549,-2.8556,-2.8575,-2.8592,-2.8592,-2.86,-2.8614,-2.8612,-2.8551,-2.8543,-2.8534,-2.8527,-2.8616,-2.8616,-2.8675,-2.8676,-2.8676]}]]